Home   Weather   Masaya   Past weeks

Flag for Nicaragua Past Weather in Masaya, Nicaragua — Yesterday and Last 2 Weeks

Now
72 °F

Passing clouds.


Feels Like: 71 °F
Forecast: 67 / 91 °F
Wind: 5 mph from Southeast

Location: Managua A. C. Sandino

Current Time: Feb 26, 2017 at 6:29:23 am

Latest Report: Feb 26, 2017 at 6:00 am


Visibility: N/A

Pressure: 29.89 "Hg

Humidity: 83%

Dew Point: 66 °F

Location of MasayaLocation

Past Weather in Masaya — Graph

°F

Masaya Temperature Yesterday

Maximum temperature yesterday: 93 °F (at 3:00 pm)
Minimum temperature yesterday: 68 °F (at 5:00 am)
Average temperature yesterday: 81 °F

High & Low Weather Summary for the Past Weeks

 TemperatureHumidityPressure
High95 °F (Feb 22, 4:00 pm)94% (Feb 25, 5:00 am)30.09 "Hg (Feb 25, 5:00 am)
Low68 °F (Feb 14, 6:45 am)24% (Feb 25, 5:00 pm)29.68 "Hg (Feb 23, 4:00 pm)
Average81 °F63%29.88 "Hg
* Reported Feb 11 5:00 am — Feb 26 4:00 am, Masaya, Weather by CustomWeather, © 2017

Note: Actual official high and low records may vary slightly from our data, if they occured in-between our weather recording intervals... More about our weather records

Advertising

Masaya Weather History for the Previous 24 Hours

Scroll right to see more
 ConditionsComfort  
Time TempWeatherWind HumidityBarometerVisibility
4:00 am
Sun, Feb 26
72 °FPassing clouds.5 mph78%29.86 "HgN/A
3:00 am72 °FPassing clouds.7 mph73%29.83 "HgN/A
2:00 am72 °FPassing clouds.No wind78%29.83 "HgN/A
1:00 am73 °FPassing clouds.7 mph74%29.86 "HgN/A
12:00 am75 °FPassing clouds.5 mph78%29.86 "HgN/A
11:00 pm
Sat, Feb 25
77 °FPassing clouds.No wind79%29.86 "HgN/A
10:00 pm81 °FPassing clouds.No wind66%29.86 "HgN/A
9:00 pm82 °FPassing clouds.7 mph70%29.86 "HgN/A
8:00 pm84 °FPassing clouds.5 mph62%29.83 "HgN/A
7:00 pm86 °FPassing clouds.7 mph55%29.80 "HgN/A
6:00 pm88 °FPassing clouds.7 mph52%29.80 "HgN/A
5:00 pm90 °FPassing clouds.12 mph24%29.77 "HgN/A
4:00 pm91 °FPassing clouds.16 mph44%29.77 "HgN/A
3:00 pm93 °FPassing clouds.7 mph41%29.77 "HgN/A
2:00 pm91 °FScattered clouds.9 mph44%29.80 "HgN/A
1:00 pm91 °FScattered clouds.9 mph46%29.83 "HgN/A
12:00 pm88 °FPassing clouds.12 mph55%29.86 "HgN/A
11:00 am86 °FPassing clouds.9 mph62%29.89 "HgN/A
10:00 am84 °FPassing clouds.9 mph62%29.92 "HgN/A
9:00 am84 °FPassing clouds.7 mph62%29.92 "HgN/A
8:00 am77 °FPassing clouds.No wind61%29.92 "HgN/A
7:00 am70 °FPassing clouds.No wind73%29.89 "HgN/A
6:00 am68 °FPassing clouds.No wind83%29.83 "Hg4 mi
Weather by CustomWeather, © 2017

See weather overviewHow to use our weather pages

LIVE ANNULAR SOLAR ECLIPSE – Watch the eclipse as it happens